Location:  
MeteoStar

Sort by weather type Sort by elevation Sort by visibility Sort from west to east north Sort from north to south Alphabetically Sort from strongest wind speed Sort from lowest to highest pressure Sort from highest to lowest dew point temperature Sort coolest temperatures to warmest Sort warm temperatures to coolest
 Metric

Current Observations for United Kingdom sorted from warmest to coolest

Saint Helena Island09:50ZCloudy66 54351020ESE 10 661427
Milford Haven10:00ZNot Avail.50 48181016.4SSE 13 45144
Exeter Airport09:50ZMostly Cloudy50 4631018.2SE 10 4698
Stornoway09:50ZMostly Cloudy50 45161014.1S 19 4429
Valley09:50ZMostly Cloudy50 43251016.1ESE 7 473
Isle Of Man / Ronaldsway Airport09:50ZMostly Cloudy50 45151016.1SE 18 4455
Scilly; Saint MaryS09:50ZClear50 43201017.2SW 6 48101
Belfast / Harbour09:50ZLight Rain50 482.251015.1SSE 11 4616
Aultbea10:00ZNot Avail.49 43301014.5SE 14 4436
Sule Skerry10:00ZNot Avail.49 4481015.5S 22 Gusting to 30 4252
Chivenor10:00ZNot Avail.49 47151017.5N Gusting to 0 4926
Plymouth10:00ZMist49 4941017.9SE 7 46164
Ballypatrick Forest10:00ZHeavy Rain/Drizzle48 4721014.5S 7 45511
Saint Catherines Point10:00ZNot Avail.48 41151021.2SE 17 4252
Mumbles10:00ZNot Avail.48 45181018.4ESE 24 Gusting to 31 40114
Tiree09:50ZRain48 482.251013.1SE 22 4139
Sumburgh Cape 09:50ZMostly Cloudy48 3981021.1S 22 Gusting to 34 4116
Pembrey Sands09:50ZMostly Cloudy48 4681017.1ESE 13 Gusting to 25 439
Bournemouth Airport09:50ZPartly Cloudy48 39141020.1SSE 14 4236
Belfast / Aldergrove Airport09:50ZPartly Cloudy48 46191014.2SE 6 45265
Portglenone10:00ZNot Avail.47 46251013.9SSE 8 43209
Isle Of Portland10:00ZNot Avail.47 41151020.2SE 14 41173
Camborne10:00ZMostly Cloudy47 44201017.0ESE 3 47285
Trawscoed10:00ZNot Avail.47 42121018ESE 10 42206
Aberdaron10:00ZNot Avail.47 43171017.4SSE 19 Gusting to 29 40311
Fair Isle10:00ZNot Avail.47 4181020.7SSE 27 Gusting to 37 38187
Aberporth10:00ZClear47 4571016.7SE 14 41436
Machrihanish10:00ZNot Avail.47 4671015.0SE 20 Gusting to 30 4042
Glenanne10:00ZMist46 N/A2.51014S 11 528
Thorney Island10:00ZNot Avail.46 40201022SE 12 4013
Cardinham10:00ZClear46 461.251017.4SE 3 46656
Bridlington Mrsc10:00ZNot Avail.46 40201023.5SSE 19 3949
Prestwick Rnas10:00ZNot Avail.46 41191017.0SE 13 4085
Altnaharra10:00ZNot Avail.46 40251016.7N 9 Gusting to 28 41265
South Uist Range10:00ZMist46 462.751012.7ESE 5 4432
Baltasound10:00ZClear46 4271022.0S 22 Gusting to 31 3849
Kinloss09:50ZMostly Cloudy46 41171017.1SE 14 4022
Scatsa / Shetland Island09:50ZMostly Cloudy46 4141021.2SSE 16 3972
Benbecula09:50ZShowers nearby46 4641012.1ESE 4 4419
Prestwick Airport09:50ZMostly Cloudy46 41101017.1SE 15 4065
Glasgow Airport09:50ZMostly Cloudy46 41101018.1E 7 4226
Inverness / Dalcross09:50ZPartly Cloudy46 41101018.1N 1 4629
Wick09:50ZClear46 4371018.2S 15 40127
Kirkwall Airport09:50ZMostly Cloudy46 4381018.1SSE 19 3968
West Freugh10:00ZClear46 4531016.7SE 19 Gusting to 28 3936
Shoreham Airport09:50ZMostly Cloudy46 3781022.1CALM466
Cardiff-Wales Airport09:50ZMostly Cloudy46 4591019.2ESE 14 40219
St Athan Royal Air Force Base09:50ZMostly Cloudy46 43151018.2ESE 12 40164
Staverton Private 09:50ZClear46 412.51021.2SE 2 4695
Eglinton / Londonderr09:50ZMostly Cloudy46 452.251014.1WNW 2 4629
Castlederg10:00ZNot Avail.45 44121013.7SSE 4 43167
Rhyl10:00ZNot Avail.45 41181018.5SE 8 41252
Capel Curig10:00ZNot Avail.45 40201018.7E 6 42708
Keswick10:00ZNot Avail.45 40111020.2SSE 7 41265
Lerwick10:00ZCloudy45 3981021.5S 25 Gusting to 33 36269
Northolt09:50ZMostly Cloudy45 4171022.2ESE 9 40124
Middle Wallop09:50ZPartly Cloudy45 41201021.3SE 9 40298
Benson09:50ZMostly Cloudy45 4191021.2ESE 11 39206
Cranfield09:50ZHaze45 4131022.3SE 12 39364
Lossiemouth09:50ZMostly Cloudy45 41121018.1SSE 20 3742
Boulmer09:50ZMostly Cloudy45 41121022.2SSE 15 3875
Leuchars09:50ZMostly Cloudy45 4171020.1S 15 3839
Dundee / Riverside09:50ZPartly Cloudy45 4141020.1SE 4 4313
Aberdeen / Dyce09:50ZMostly Cloudy45 41101021.2SSE 19 37213
Walney Island10:00ZNot Avail.45 4271019.5ESE 15 3849
Lydd Airport 09:50ZClear45 3481024.1SSE 12 399
London / Heathrow Airport09:50ZCloudy45 4181022.2ESE 10 4078
Farnborough09:50ZMostly Cloudy45 41101022.2ESE 7 41213
London City Airport09:50ZClear45 3981023.1E 9 4016
London / Gatwick Airport09:50ZMostly Cloudy45 3981022.2ESE 7 41203
Guernsey Airport09:50ZMostly Cloudy45 4371019.3SSE 13 39334
Southampton / Weather Centre09:50ZPartly Cloudy45 37141021.1SE 7 4129
Yeovilton09:50ZPartly Cloudy45 4191020.2SE 8 4175
Culdrose09:50ZPartly Cloudy45 45151017.2ENE 4 43255
Lough Fea10:00ZClear44 N/A0.251014.2SSE 5 738
Herstmonceux10:00ZNot Avail.44 36251023.4SE 5 41170
Dunkeswell Aerodrome10:00ZLight Drizzle44 N/A11019.2SE 12 826
Larkhill10:00ZPartly Cloudy44 39121021.2ESE 6 41433
Liscombe10:00ZNot Avail.44 440.251018.4SE 9 391141
Donna Nook10:00ZNot Avail.44 37201024.1SE 9 3926
Crosby10:00ZNot Avail.44 4171020SE 10 3926
Dundrennan10:00ZHaze44 4171018SE 20 Gusting to 28 36374
Inverbervie10:00ZNot Avail.44 4181020.9SSE 28 Gusting to 36 34439
Aviemore10:00ZNot Avail.44 39201018.4S 4 42721
Tulloch Bridge10:00ZLight Showers44 4071017.7S 5 41777
Mildenhall Royal Air Force Base09:56ZClear44 40201023.7SE 12 3832
Lyneham10:00ZNot Avail.44 39151021SE 10 39475
Shoeburyness10:00ZNot Avail.43 33201024.5SE 12 376
Shobdon10:00ZNot Avail.43 4071020.5SE 4 41324
Sennybridge10:00ZNot Avail.43 4171019SE 14 361007
Saint Bees Head10:00ZNot Avail.43 4081018.9SE 22 Gusting to 29 34406
Strathallan10:00ZNot Avail.43 3971019.7NE 5 40114
Aboyne10:00ZNot Avail.43 4091020.5SSE 9 38459
Loch Glascanoch10:00ZNot Avail.43 40301017E 10 37869
Wainfleet10:00ZNot Avail.43 37101024.3SSE 12 379
Leconfield09:50ZCloudy43 37111023.1SE 6 3919
Linton-On-Ouse09:50ZMostly Cloudy43 37111022.2SE 8 3852
Cosford Royal Air Force Base09:50ZClear43 41201021.3SE 9 38272
Odiham09:50ZMostly Cloudy43 41111021.4ESE 6 39403
Brize Norton09:50ZMostly Cloudy43 41121021.3SE 6 39288
Lakenheath Royal Air Force Base09:56ZClear43 3371024.0SE 9 3832
Cambridge10:20ZClear43 34121024.2SSE 8 3849
Edinburgh Airport09:50ZPartly Cloudy43 39101019.2E 10 37134
Shawbury09:50ZHaze43 4151020.3SE 8 38249
Newcastle 09:50ZMostly Cloudy43 37151022.3SSE 5 40265
Hawarden09:50ZClear43 4161020.1SE 11 3732
Humberside09:50ZMostly Cloudy43 3941024.2SE 9 38101
Blackpool Airport09:50ZPartly Cloudy43 4141020.1ESE 17 3532
Southend-On-Sea 09:50ZClear43 3281024.1SE 10 3749
Jersey Airport09:50ZMostly Cloudy43 4181019.3SSE 12 37275
Alderney / Channel Island09:50ZMostly Cloudy43 41141020.2SE 14 36232
Liverpool Airport 09:50ZMostly Cloudy43 3951020.2ESE 11 3785
Bristol / Lulsgate 09:50ZPartly Cloudy43 4391019.4E 8 38620
Boscombe Down09:50ZClear43 39201020.3ESE 9 38406
Manchester Airport09:50ZClear43 372.51021.2SE 6 39226
Langdon Bay10:00ZNot Avail.42 3161024.5SE 14 35383
Kenley10:00ZClear42 4061023.0SSE 6 38557
High Wicombe Hqstc10:00ZHaze42 4141022.4SE 10 36669
Bedford10:00ZNot Avail.42 38141023.2SE 10 36278
Church Lawford10:00ZMist42 4031022.2SE 9 37351
Weybourne10:00ZNot Avail.42 36301024.9SSE 6 3868
Shap10:00ZNot Avail.42 38141020.9SSE 11 36816
Manston10:00ZNot Avail.42 30201024.6SE 12 35180
Little Rissington10:00ZNot Avail.41 4071021.2SE 10 35705
Pershore10:00ZMist41 4041021.7ENE 3 41104
Lake Vyrnwy10:00ZNot Avail.41 4061019.4ESE 8 361181
Warcop Range10:00ZNot Avail.41 38101021.4SE 15 33744
Marham09:50ZPartly Cloudy41 34111024.2SE 6 3775
Holbeach09:50ZClear41 37201024.1SSE 9 359
Topcliffe Royal Air Force Base 09:50ZMostly Cloudy41 3771022.2SE 9 3591
Coningsby Royal Air Force Base09:50ZNot Avail.41 3791023.1SE 8 3622
Wattisham09:50ZClear41 34201024.3SSE 7 36285
Stansted Airport09:50ZClear41 34121023.3SE 11 34347
Norwich Weather Centre09:50ZPartly Cloudy41 37121024.2SSE 4 3845
East Midlands09:50ZPartly Cloudy41 3941022.3ESE 9 35308
Tees-Side09:50ZMostly Cloudy41 3761022.2CALM41121
Biggin Hill 09:50ZPartly Cloudy41 3981023.5ESE 5 38600
Luton Airport 09:50ZMist41 4131022.5SE 7 36524
Birmingham / Airport09:50ZMist41 412.51021.3SE 9 35324
Nottingham Weather Centre10:00ZHaze40 3841023SE 8 35383
Fylingdales10:00ZNot Avail.40 3620SE 12 33859
Loftus Samos10:00ZNot Avail.40 36201023.0SSE 12 33190
Charterhall10:00ZHaze40 3851021.0SE 12 33367
Redesdale10:00ZNot Avail.39 3841022SE 11 32692
Cranwell09:50ZPartly Cloudy39 3771023.3SE 9 33219
Waddington09:50ZMostly Cloudy39 3771023.3SE 7 34223
Wittering09:50ZPartly Cloudy39 3781022.3SE 6 35275
Leeming09:50ZMostly Cloudy39 3771022.2S 6 35131
Eskdalemuir10:00ZCloudy38 3671020.7ESE 2 38793
Bingley10:00ZFog37 370.621022.4SE 6 32859
Spadeadam10:00ZMist37 3711021.5E 7 32935
Spadeadam09:50ZFog37 370.51020.8E 7 321066
Leeds And Bradford09:50ZMist37 3721021.6SE 8 31682
Great Dun Fell10:00ZNot Avail.33 N/A10S 29 Gusting to 35 2778
Aonach Mor10:00ZNot Avail.33 3330SSE 24 Gusting to 38 203707
Cairngorm10:00ZNot Avail.30 3020SSE 40 Gusting to 47 134084


Atlantic
Tropical Watch